Location: Wyoming Infrared Observatory
(41.0971°N, 105.9765°W)
Time: 17:48:53
(UTC-06:00)

Amateur Radio Satellites - All Passes

Search period start: 05 May 2016 17:18
Search period end: 06 May 2016 17:18
Location: Wyoming Infrared Observatory, 41.0971°N, 105.9765°W

Satellite Date Start Highest point End Downlink Frequencies (MHz)
Time Altitude Azimuth
BEESAT 2 05 May 17:22:00 17:24:01 14° 109° (ESE) 17:26:03 435.950
PCSat 05 May 17:23:22 17:26:43 16° 319° (NW) 17:30:05 145.827
BRITE-PL 05 May 17:28:47 17:32:28 21° 63° (ENE) 17:36:21 437.365/2234.400
NOAA 15 05 May 17:31:16 17:36:02 36° 68° (ENE) 17:40:52 137.62
LilacSat-2 05 May 17:31:56 17:34:12 15° 66° (ENE) 17:36:28 437.200
HORYU 2 05 May 17:34:34 17:38:40 36° 262° (W) 17:42:48 437.375
MOZHAYETS 4 05 May 17:35:10 17:39:35 50° 287° (WNW) 17:44:01
NOAA 18 05 May 17:38:33 17:43:38 39° 68° (ENE) 17:48:43 137.9125
Cubesat XI-IV 05 May 17:44:50 17:49:31 32° 67° (ENE) 17:54:12 437.490
AO-7 05 May 17:50:37 17:55:43 18° 270° (W) 18:00:53 29.400- 29.500
CUBESAT XI-V 05 May 17:52:04 17:56:06 27° 95° (E) 18:00:06 437.345
M-CUBED/EXP-1 PRIME 05 May 18:00:05 18:03:31 20° 61° (ENE) 18:06:52 437.505
DOVE 4 05 May 18:05:57 18:08:12 13° 60° (ENE) 18:10:28 437.250
AUBIESAT-1 05 May 18:15:38 18:19:17 23° 62° (ENE) 18:22:52 437.475
GOMX 1 05 May 18:23:06 18:27:42 34° 68° (ENE) 18:32:32 467.674
Cosmos 2491 05 May 18:37:00 18:45:45 71° 267° (W) 18:54:25 435.465 / 435.565
CUTE-I 05 May 18:38:31 18:43:51 83° 256° (WSW) 18:49:12 437.470
BEESAT 3 05 May 18:44:08 18:47:53 42° 307° (NW) 18:51:41 437.485
YUBILEINY 05 May 18:46:32 18:55:05 63° 92° (E) 19:03:37 435.215
HO-68 05 May 18:49:11 18:54:23 22° 57° (ENE) 18:59:35 435.675
STARS 05 May 18:56:59 18:57:19 10° 300° (WNW) 18:57:38 437.465
BEESAT 2 05 May 18:57:32 19:01:26 52° 306° (NW) 19:05:21 435.950
LilacSat-2 05 May 19:04:32 19:08:11 39° 262° (W) 19:11:51 437.200
CANX-2 05 May 19:05:10 19:06:57 13° 63° (ENE) 19:08:44 2200.000
BRITE-PL 05 May 19:05:44 19:10:29 49° 262° (W) 19:15:39 437.365/2234.400
NOAA 15 05 May 19:11:22 19:15:51 28° 265° (W) 19:20:23 137.62
AIST 2 05 May 19:19:19 19:22:07 18° 111° (ESE) 19:24:55 435.215
NOAA 18 05 May 19:19:42 19:24:22 28° 264° (W) 19:29:02 137.9125
Cubesat XI-IV 05 May 19:24:48 19:29:31 32° 263° (W) 19:34:17 437.490
CUBESAT XI-V 05 May 19:29:20 19:33:26 30° 291° (WNW) 19:37:32 437.345
M-CUBED/EXP-1 PRIME 05 May 19:33:09 19:37:43 48° 256° (WSW) 19:42:12 437.505
CUTE 1.7 + AOD 2 05 May 19:35:33 19:38:53 23° 68° (ENE) 19:42:14 437.475
DOVE 4 05 May 19:39:54 19:45:03 89° 241° (WSW) 19:50:25 437.250
AUBIESAT-1 05 May 19:49:12 19:53:32 39° 257° (WSW) 19:57:48 437.475
COMPASS 1 05 May 19:54:29 19:57:29 20° 67° (ENE) 20:00:28 437.405
SEEDS 05 May 19:56:32 20:00:07 28° 70° (ENE) 20:03:42 437.485
CINEMA 3 05 May 19:59:42 20:04:32 49° 73° (ENE) 20:09:21 145.822/145.860
GOMX 1 05 May 20:01:18 20:05:45 30° 266° (W) 20:10:27 467.674
RS-15 05 May 20:05:23 20:14:05 27° 101° (E) 20:23:04 29.354- 29.394
UWE-3 05 May 20:12:29 20:15:13 16° 64° (ENE) 20:17:54 435.000/436.395/437.385
Cosmos 2504 05 May 20:13:06 20:20:08 56° 92° (E) 20:27:05 435.465 / 435.565
AAUSAT CUBESAT 2 05 May 20:21:17 20:24:54 30° 70° (ENE) 20:28:31 437.432
CUBEBUG 2 05 May 20:25:27 20:29:31 30° 69° (ENE) 20:33:33 437.445
STRAND 1 05 May 20:27:57 20:33:05 87° 106° (ESE) 20:38:13 437.568
HO-68 05 May 20:34:12 20:41:21 76° 255° (WSW) 20:48:33 435.675
AO-85 05 May 20:34:56 20:39:25 37° 49° (NE) 20:43:31 145.980
ZACube-1 05 May 20:35:16 20:38:17 18° 66° (ENE) 20:41:16 437.345
Cosmos 2491 05 May 20:37:47 20:40:49 12° 287° (WNW) 20:43:51 435.465 / 435.565
CANX-2 05 May 20:38:09 20:42:18 59° 260° (W) 20:46:28 2200.000
YUBILEINY 05 May 20:45:10 20:52:27 29° 292° (WNW) 20:59:45 435.215
AIST 2 05 May 20:56:19 21:00:16 43° 307° (NW) 21:04:15 435.215
PRISM 05 May 21:00:48 21:04:43 38° 98° (E) 21:08:38 437.425
DELFI C3 05 May 21:08:18 21:11:09 19° 67° (ENE) 21:14:01 145.870
Oscar 11 05 May 21:09:29 21:13:34 44° 72° (ENE) 21:17:41 145.826/435.025
CUTE 1.7 + AOD 2 05 May 21:10:55 21:14:35 29° 264° (W) 21:18:17 437.475
HUMSAT D 05 May 21:12:08 21:12:43 10° 62° (ENE) 21:13:18 437.325/437.525
DOVE 4 05 May 21:22:29 21:23:28 10° 274° (W) 21:24:26 437.250
FUNcube-1 05 May 21:25:39 21:30:03 56° 74° (ENE) 21:34:22 145.935
COMPASS 1 05 May 21:29:04 21:32:49 33° 263° (W) 21:36:36 437.405
SEEDS 05 May 21:32:29 21:35:48 23° 266° (W) 21:39:09 437.485
CINEMA 3 05 May 21:38:20 21:41:53 19° 268° (W) 21:45:27 145.822/145.860
UWE-3 05 May 21:46:42 21:51:14 55° 260° (W) 21:55:42 435.000/436.395/437.385
AAUSAT CUBESAT 2 05 May 21:57:19 22:00:25 21° 266° (W) 22:03:33 437.432
CUBEBUG 2 05 May 22:02:02 22:06:05 28° 265° (W) 22:10:05 437.445
Cosmos 2504 05 May 22:08:09 22:13:55 25° 291° (WNW) 22:19:42 435.465 / 435.565
STRAND 1 05 May 22:09:29 22:11:31 12° 301° (WNW) 22:13:32 437.568
ZACube-1 05 May 22:09:55 22:14:15 45° 261° (W) 22:18:31 437.345
ESTCUBE 1 05 May 22:12:00 22:12:37 10° 60° (ENE) 22:13:14 437.505/2401.250
RS-15 05 May 22:13:43 22:25:03 82° 303° (WNW) 22:37:05 29.354- 29.394
AO-85 05 May 22:15:52 22:19:39 25° 249° (WSW) 22:23:11 145.980
HO-68 05 May 22:27:40 22:30:09 12° 273° (W) 22:32:38 435.675
UNISAT 6 05 May 22:29:42 22:32:25 16° 92° (E) 22:35:07 437.425
PRISM 05 May 22:36:53 22:39:44 18° 295° (WNW) 22:42:36 437.425
VELOX 1 05 May 22:41:05 22:43:42 16° 63° (ENE) 22:46:18 145.980
DELFI C3 05 May 22:42:20 22:45:50 30° 263° (W) 22:49:21 145.870
GONETS M04 05 May 22:42:27 22:45:06 12° 73° (ENE) 22:47:45
PCSat 05 May 22:43:26 22:46:09 14° 39° (NE) 22:48:52 145.827
HUMSAT D 05 May 22:43:33 22:47:46 74° 259° (W) 22:51:56 437.325/437.525
TIGRISAT 05 May 22:45:28 22:48:53 23° 94° (E) 22:52:16 435.000
Oscar 11 05 May 22:47:18 22:49:55 16° 268° (W) 22:52:33 145.826/435.025
FUNcube-1 05 May 23:04:24 23:06:36 13° 269° (W) 23:08:46 145.935
ANTELSAT 05 May 23:10:43 23:14:53 46° 99° (E) 23:18:58 437.575/2403.000
AISAT 05 May 23:12:03 23:16:02 33° 69° (ENE) 23:20:04 437.250
50 SAT 05 May 23:13:44 23:17:00 32° 71° (ENE) 23:20:17 437.505
AIST 1 05 May 23:14:08 23:15:20 11° 83° (E) 23:16:33
O/OREOS (USA 219) 05 May 23:28:57 23:32:31 22° 57° (ENE) 23:36:02 437.305
CUBEBUG 1 05 May 23:38:42 23:43:01 59° 73° (ENE) 23:47:22 437.445
ESTCUBE 1 05 May 23:44:15 23:48:43 84° 257° (WSW) 23:53:14 437.505/2401.250
DUCHIFAT 1 05 May 23:56:03 23:59:34 25° 95° (E) 00:03:01 145.980
DX 1 06 May 00:00:03 00:04:25 87° 257° (WSW) 00:08:50 434.975-435.025
UKube-1 06 May 00:00:04 00:04:22 77° 75° (ENE) 00:08:44 .
QB50P2 06 May 00:01:06 00:04:57 33° 97° (E) 00:08:46 145.880/145.840
POLYITAN 1 06 May 00:03:18 00:07:10 34° 97° (E) 00:10:58 437.675
POPSAT HIP 1 06 May 00:04:56 00:08:49 34° 98° (E) 00:12:38 437.405
UNISAT 6 06 May 00:05:17 00:09:21 41° 289° (WNW) 00:13:22 437.425
QB50P1 06 May 00:07:45 00:11:43 37° 98° (E) 00:15:37 145.935-145.965
Cosmos 2499 06 May 00:10:55 00:16:10 23° 83° (E) 00:21:27 435.465 / 435.565
VELOX 1 06 May 00:15:23 00:19:43 53° 260° (W) 00:24:06 145.980
TIGRISAT 06 May 00:21:51 00:25:36 30° 291° (WNW) 00:29:17 435.000
BUGSAT 1 06 May 00:23:24 00:26:49 24° 95° (E) 00:30:10 437.445
SPROUT 06 May 00:23:25 00:27:42 69° 75° (ENE) 00:32:02 437.525
PCSat 06 May 00:25:06 00:30:33 72° 59° (ENE) 00:35:57 145.827
JAS-2 06 May 00:28:16 00:32:34 15° 85° (E) 00:36:49 435.910
RS-15 06 May 00:29:44 00:39:40 31° 331° (NNW) 00:50:03 29.354- 29.394
GONETS M04 06 May 00:31:23 00:40:07 68° 93° (E) 00:48:52
NANOSAT C BR1 06 May 00:40:23 00:44:38 87° 103° (ESE) 00:48:49 145.865
CUSAT 1 06 May 00:43:36 00:49:33 25° 67° (ENE) 00:55:52 437.405
TISAT 1 06 May 00:44:49 00:48:40 35° 70° (ENE) 00:52:33 437.305
AIST 1 06 May 00:48:04 00:52:20 60° 280° (W) 00:56:40
ANTELSAT 06 May 00:48:36 00:51:12 16° 296° (WNW) 00:53:47 437.575/2403.000
50 SAT 06 May 00:48:41 00:50:53 15° 267° (W) 00:53:05 437.505
AISAT 06 May 00:49:02 00:52:33 23° 266° (W) 00:56:06 437.250
SWISSCUBE 06 May 00:54:34 00:55:47 11° 59° (ENE) 00:57:00 437.505
O/OREOS (USA 219) 06 May 01:07:52 01:12:01 37° 255° (WSW) 01:16:07 437.305
CUBEBUG 1 06 May 01:17:49 01:19:40 12° 270° (W) 01:21:32 437.445
BEESAT 06 May 01:24:48 01:28:14 20° 64° (ENE) 01:31:40 436.000
BEESAT 3 06 May 01:25:10 01:27:03 13° 41° (NE) 01:28:55 437.485
DUCHIFAT 1 06 May 01:31:39 01:35:12 27° 291° (WNW) 01:38:43 145.980
QB50P2 06 May 01:37:22 01:40:33 21° 293° (WNW) 01:43:42 145.880/145.840
POLYITAN 1 06 May 01:39:36 01:42:45 20° 294° (WNW) 01:45:52 437.675
BEESAT 2 06 May 01:39:45 01:41:08 11° 39° (NE) 01:42:30 435.950
POPSAT HIP 1 06 May 01:41:14 01:44:22 20° 294° (WNW) 01:47:28 437.405
QB50P1 06 May 01:44:15 01:47:13 19° 294° (WNW) 01:50:10 145.935-145.965
Oscar 19 06 May 01:54:33 01:59:12 32° 96° (E) 02:03:49 437.125/150
DANDE 06 May 01:57:12 02:03:45 42° 75° (ENE) 02:11:22 436.750
BUGSAT 1 06 May 01:58:36 02:02:09 27° 291° (WNW) 02:05:39 437.445
Cosmos 2499 06 May 02:01:43 02:08:38 58° 282° (WNW) 02:15:41 435.465 / 435.565
SPROUT 06 May 02:03:44 02:04:07 10° 271° (W) 02:04:30 437.525
PCSat 06 May 02:10:13 02:13:17 15° 256° (WSW) 02:16:21 145.827
JAS-2 06 May 02:10:41 02:18:36 80° 103° (ESE) 02:26:20 435.910
Gurwin Techsat 1B 06 May 02:18:01 02:22:08 22° 93° (E) 02:26:14 435.225
ITUPSAT 1 06 May 02:20:39 02:25:23 70° 74° (ENE) 02:30:07 437.325
TISAT 1 06 May 02:21:18 02:24:24 20° 266° (W) 02:27:33 437.305
CUSAT 1 06 May 02:24:41 02:32:14 76° 264° (W) 02:40:18 437.405
SWISSCUBE 06 May 02:28:06 02:32:51 88° 259° (W) 02:37:38 437.505
GONETS M04 06 May 02:30:29 02:37:39 27° 293° (WNW) 02:44:52
KKS-1 06 May 02:33:20 02:35:11 12° 61° (ENE) 02:37:03 437.445
RS-15 06 May 02:48:41 02:57:36 23° 7° (N) 03:06:40 29.354- 29.394
BEESAT 06 May 03:01:09 03:05:42 44° 261° (W) 03:10:15 436.000
BEESAT 3 06 May 03:01:18 03:05:16 77° 240° (WSW) 03:09:11 437.485
MOZHAYETS 4 06 May 03:01:40 03:04:23 16° 64° (ENE) 03:07:04
BEESAT 2 06 May 03:15:36 03:19:36 87° 58° (ENE) 03:23:34 435.950
ITAMSAT 1 06 May 03:20:54 03:25:38 35° 97° (E) 03:30:21 435.822/435.867
Oscar 19 06 May 03:33:55 03:38:27 31° 293° (WNW) 03:42:57 437.125/150
DANDE 06 May 03:40:00 03:46:34 42° 268° (W) 03:54:10 436.750
AIST 2 06 May 03:40:16 03:42:42 15° 42° (NE) 03:45:07 435.215
AO-7 06 May 03:55:55 04:03:05 31° 96° (E) 04:10:12 29.400- 29.500
JAS-2 06 May 03:56:52 04:02:44 24° 301° (WNW) 04:08:36 435.910
Gurwin Techsat 1B 06 May 03:57:13 04:02:17 45° 290° (WNW) 04:07:18 435.225
ITUPSAT 1 06 May 04:01:52 04:03:42 12° 270° (W) 04:05:31 437.325
KKS-1 06 May 04:06:42 04:11:10 70° 258° (WSW) 04:15:40 437.445
CUSAT 1 06 May 04:09:25 04:13:21 15° 279° (W) 04:17:23 437.405
STARS 06 May 04:13:23 04:17:47 72° 74° (ENE) 04:22:14 437.465
MOZHAYETS 4 06 May 04:36:38 04:41:06 54° 260° (W) 04:45:35
CUBESAT XI-V 06 May 04:55:27 04:59:17 27° 68° (ENE) 05:03:08 437.345
YUBILEINY 06 May 04:57:09 05:04:37 30° 69° (ENE) 05:12:02 435.215
ITAMSAT 1 06 May 05:00:33 05:04:59 29° 294° (WNW) 05:09:23 435.822/435.867
RS-15 06 May 05:03:10 05:14:39 43° 40° (NE) 05:26:10 29.354- 29.394
AIST 2 06 May 05:17:31 05:21:39 69° 240° (WSW) 05:25:45 435.215
HORYU 2 06 May 05:25:14 05:29:24 40° 99° (E) 05:33:34 437.375
SO-50 06 May 05:28:15 05:31:11 16° 108° (ESE) 05:34:06 436.795
Cosmos 2491 06 May 05:42:48 05:49:59 29° 82° (E) 05:57:10 435.465 / 435.565
NOAA 15 06 May 05:48:03 05:50:31 13° 90° (E) 05:53:00 137.62
AO-7 06 May 05:48:04 05:56:13 60° 294° (WNW) 06:04:21 29.400- 29.500
ISS 06 May 05:49:20 05:52:10 28° 135° (SE) 05:55:01 145.825
STARS 06 May 05:54:01 05:54:37 10° 270° (W) 05:55:13 437.465
NOAA 18 06 May 06:01:49 06:05:03 16° 91° (E) 06:08:16 137.9125
Cubesat XI-IV 06 May 06:03:55 06:05:56 12° 89° (E) 06:07:57 437.490
Cosmos 2504 06 May 06:05:15 06:10:41 20° 66° (ENE) 06:16:21 435.465 / 435.565
STRAND 1 06 May 06:07:13 06:10:13 16° 61° (ENE) 06:13:13 437.568
GOMX 1 06 May 06:28:01 06:29:10 11° 85° (E) 06:30:18 467.674
CUBESAT XI-V 06 May 06:32:30 06:36:33 30° 264° (W) 06:40:38 437.345
LilacSat-2 06 May 06:38:30 06:41:23 20° 94° (E) 06:44:14 437.200
YUBILEINY 06 May 06:53:24 07:01:53 59° 269° (W) 07:10:22 435.215
CUTE-I 06 May 06:55:50 07:00:49 39° 98° (E) 07:05:46 437.470
HORYU 2 06 May 07:02:33 07:05:41 19° 295° (WNW) 07:08:48 437.375
SO-50 06 May 07:06:16 07:11:09 65° 305° (NW) 07:16:03 436.795
BRITE-PL 06 May 07:10:12 07:15:51 60° 99° (E) 07:21:17 437.365/2234.400
RS-15 06 May 07:15:52 07:28:02 70° 245° (WSW) 07:40:10 29.354- 29.394
ISS 06 May 07:25:31 07:28:33 35° 332° (NNW) 07:31:36 145.825
NOAA 15 06 May 07:25:31 07:30:51 76° 286° (WNW) 07:36:09 137.62
AUBIESAT-1 06 May 07:30:39 07:31:58 12° 95° (E) 07:33:16 437.475
Cosmos 2491 06 May 07:37:28 07:46:11 61° 282° (WNW) 07:54:57 435.465 / 435.565
DOVE 4 06 May 07:40:01 07:44:15 27° 93° (E) 07:48:15 437.250
NOAA 18 06 May 07:40:45 07:46:10 67° 288° (WNW) 07:51:34 137.9125
Cubesat XI-IV 06 May 07:41:16 07:46:37 81° 285° (WNW) 07:51:56 437.490
AO-7 06 May 07:43:29 07:47:18 14° 315° (NW) 07:51:07 29.400- 29.500
STRAND 1 06 May 07:43:46 07:48:49 67° 258° (WSW) 07:53:55 437.568
PRISM 06 May 07:50:23 07:53:51 27° 69° (ENE) 07:57:22 437.425
Cosmos 2504 06 May 07:57:07 08:04:50 80° 265° (W) 08:13:08 435.465 / 435.565
CINEMA 3 06 May 07:57:50 07:58:44 11° 88° (E) 07:59:37 145.822/145.860
GOMX 1 06 May 08:02:35 08:08:01 90° 277° (W) 08:13:09 467.674
HO-68 06 May 08:03:12 08:08:21 21° 92° (E) 08:13:28 435.675
LilacSat-2 06 May 08:12:29 08:15:40 26° 290° (WNW) 08:18:50 437.200
CANX-2 06 May 08:23:43 08:27:05 23° 94° (E) 08:30:27 2200.000
CUTE-I 06 May 08:36:15 08:40:40 27° 295° (WNW) 08:45:04 437.470
PHONESAT 2.4 06 May 08:44:20 08:47:04 27° 157° (SSE) 08:49:48 2401.200-2431.200
M-CUBED/EXP-1 PRIME 06 May 08:47:56 08:51:41 54° 292° (WNW) 08:55:09 437.505
BRITE-PL 06 May 08:49:40 08:53:47 21° 297° (WNW) 08:57:49 437.365/2234.400
SO-50 06 May 08:50:23 08:52:35 13° 325° (NW) 08:54:46 436.795
CUTE 1.7 + AOD 2 06 May 08:55:14 08:59:18 45° 99° (E) 09:03:22 437.475
AUBIESAT-1 06 May 09:03:13 09:06:49 43° 293° (WNW) 09:10:11 437.475
ISS 06 May 09:03:53 09:05:44 14° 352° (N) 09:07:36 145.825
NOAA 15 06 May 09:08:43 09:09:42 10° 304° (WNW) 09:10:40 137.62
COMPASS 1 06 May 09:11:38 09:15:29 35° 97° (E) 09:19:19 437.405
SEEDS 06 May 09:15:20 09:19:28 56° 100° (E) 09:23:36 437.485
DOVE 4 06 May 09:17:26 09:21:58 34° 291° (WNW) 09:26:16 437.250
Cubesat XI-IV 06 May 09:24:15 09:25:48 11° 303° (WNW) 09:27:22 437.490
PRISM 06 May 09:25:52 09:29:09 23° 265° (W) 09:32:27 437.425
UNISAT 6 06 May 09:28:36 09:31:32 17° 65° (ENE) 09:34:26 437.425
CINEMA 3 06 May 09:31:53 09:36:27 69° 285° (WNW) 09:40:45 145.822/145.860
RS-15 06 May 09:32:01 09:38:09 15° 265° (W) 09:44:17 29.354- 29.394
UWE-3 06 May 09:36:58 09:40:37 28° 96° (E) 09:44:11 435.000/436.395/437.385
AAUSAT CUBESAT 2 06 May 09:38:23 09:42:29 58° 100° (E) 09:46:35 437.432
Cosmos 2491 06 May 09:42:14 09:45:09 12° 305° (NW) 09:48:04 435.465 / 435.565
GOMX 1 06 May 09:42:56 09:45:12 13° 301° (WNW) 09:47:26 467.674
TIGRISAT 06 May 09:43:59 09:47:34 23° 67° (ENE) 09:51:06 435.000
HO-68 06 May 09:49:32 09:56:40 72° 289° (WNW) 10:03:46 435.675
CUBEBUG 2 06 May 09:52:28 09:56:43 62° 101° (E) 10:00:50 437.445
Cosmos 2504 06 May 09:53:33 09:57:02 14° 282° (WNW) 10:00:38 435.465 / 435.565
ZACube-1 06 May 09:58:33 10:02:19 32° 97° (E) 10:06:02 437.345
CANX-2 06 May 09:59:16 10:02:56 29° 290° (WNW) 10:06:37 2200.000
ANTELSAT 06 May 10:09:02 10:13:23 42° 72° (ENE) 10:17:40 437.575/2403.000
DELFI C3 06 May 10:19:48 10:23:22 31° 97° (E) 10:26:57 145.870
PHONESAT 2.4 06 May 10:20:33 10:23:41 73° 174° (S) 10:26:50 2401.200-2431.200
HUMSAT D 06 May 10:28:09 10:30:49 17° 93° (E) 10:33:29 437.325/437.525
CUTE 1.7 + AOD 2 06 May 10:32:12 10:34:47 16° 295° (WNW) 10:37:22 437.475
Oscar 11 06 May 10:32:26 10:36:46 86° 283° (WNW) 10:41:04 145.826/435.025
ISS 06 May 10:41:07 10:43:13 16° 12° (NNE) 10:45:17 145.825
GONETS M04 06 May 10:42:16 10:49:59 33° 70° (ENE) 10:57:36
COMPASS 1 06 May 10:47:50 10:50:48 19° 293° (WNW) 10:53:47 437.405
DUCHIFAT 1 06 May 10:48:16 10:51:20 20° 66° (ENE) 10:54:25 145.980
FUNcube-1 06 May 10:49:58 10:54:07 66° 285° (WNW) 10:58:12 145.935
AO-85 06 May 10:50:17 10:53:18 15° 107° (ESE) 10:56:20 145.980
SEEDS 06 May 10:52:43 10:54:43 13° 296° (WNW) 10:56:42 437.485
QB50P2 06 May 10:53:46 10:57:19 26° 68° (ENE) 11:00:52 145.880/145.840
AIST 1 06 May 10:55:18 10:59:16 31° 76° (ENE) 11:03:12
POLYITAN 1 06 May 10:55:57 10:59:31 26° 68° (ENE) 11:03:07 437.675
POPSAT HIP 1 06 May 10:57:26 11:01:01 26° 68° (ENE) 11:04:36 437.405
QB50P1 06 May 11:00:09 11:03:49 29° 69° (ENE) 11:07:31 145.935-145.965
UNISAT 6 06 May 11:03:21 11:07:52 50° 261° (W) 11:12:18 437.425
BUGSAT 1 06 May 11:13:28 11:16:23 18° 65° (ENE) 11:19:18 437.445
UWE-3 06 May 11:13:36 11:16:58 24° 292° (WNW) 11:20:17 435.000/436.395/437.385
AAUSAT CUBESAT 2 06 May 11:15:44 11:17:29 12° 296° (WNW) 11:19:14 437.432
TIGRISAT 06 May 11:19:46 11:24:02 36° 262° (W) 11:28:15 435.000
CUBEBUG 1 06 May 11:29:52 11:31:08 11° 89° (E) 11:32:25 437.445
CUBEBUG 2 06 May 11:31:10 11:32:46 12° 298° (WNW) 11:34:22 437.445
NANOSAT C BR1 06 May 11:32:02 11:36:14 62° 75° (ENE) 11:40:28 145.865
ZACube-1 06 May 11:35:19 11:38:25 20° 293° (WNW) 11:41:29 437.345
ESTCUBE 1 06 May 11:37:33 11:40:57 21° 94° (E) 11:44:21 437.505/2401.250
HO-68 06 May 11:39:37 11:43:09 14° 308° (NW) 11:46:40 435.675
ANTELSAT 06 May 11:46:59 11:50:14 19° 267° (W) 11:53:28 437.575/2403.000
UKube-1 06 May 11:49:09 11:51:05 13° 91° (E) 11:53:01 .
DX 1 06 May 11:49:31 11:52:17 16° 93° (E) 11:55:02 434.975-435.025
Cosmos 2499 06 May 11:51:09 11:58:43 49° 77° (ENE) 12:06:49 435.465 / 435.565
DELFI C3 06 May 11:55:07 11:58:03 20° 292° (WNW) 12:00:59 145.870
PHONESAT 2.4 06 May 11:57:21 12:00:29 69° 189° (S) 12:03:38 2401.200-2431.200
HUMSAT D 06 May 12:02:50 12:06:35 37° 288° (WNW) 12:10:20 437.325/437.525
VELOX 1 06 May 12:05:50 12:09:43 28° 96° (E) 12:13:33 145.980
SPROUT 06 May 12:11:42 12:13:17 12° 90° (E) 12:14:52 437.525
50 SAT 06 May 12:16:49 12:20:19 41° 99° (E) 12:23:48 437.505
ISS 06 May 12:17:04 12:20:15 49° 31° (NNE) 12:23:26 145.825
DUCHIFAT 1 06 May 12:22:50 12:26:47 36° 262° (W) 12:30:44 145.980
JAS-2 06 May 12:23:02 12:28:35 35° 64° (ENE) 12:34:46 435.910
AO-85 06 May 12:27:43 12:33:12 80° 303° (WNW) 12:38:37 145.980
QB50P2 06 May 12:29:22 12:33:01 27° 264° (W) 12:36:42 145.880/145.840
POLYITAN 1 06 May 12:31:36 12:35:15 27° 264° (W) 12:38:54 437.675
POPSAT HIP 1 06 May 12:33:05 12:36:43 26° 264° (W) 12:40:22 437.405
AIST 1 06 May 12:33:19 12:36:39 21° 272° (W) 12:39:58
QB50P1 06 May 12:36:03 12:39:34 24° 265° (W) 12:43:05 145.935-145.965
AISAT 06 May 12:38:07 12:42:35 68° 102° (ESE) 12:47:01 437.250
GONETS M04 06 May 12:38:44 12:47:09 54° 270° (W) 12:55:30
BUGSAT 1 06 May 12:47:28 12:51:27 40° 262° (W) 12:55:29 437.445
CUBEBUG 1 06 May 13:03:26 13:07:52 67° 285° (WNW) 13:12:14 437.445
NANOSAT C BR1 06 May 13:11:04 13:12:22 11° 270° (W) 13:13:39 145.865
Oscar 19 06 May 13:11:06 13:16:02 47° 71° (ENE) 13:21:01 437.125/150
ESTCUBE 1 06 May 13:13:41 13:17:53 38° 289° (WNW) 13:22:03 437.505/2401.250
UKube-1 06 May 13:23:13 13:27:29 56° 287° (WNW) 13:31:42 .
DX 1 06 May 13:24:30 13:28:42 45° 288° (WNW) 13:32:52 434.975-435.025
PHONESAT 2.4 06 May 13:34:27 13:37:05 24° 205° (SSW) 13:39:41 2401.200-2431.200
Gurwin Techsat 1B 06 May 13:38:48 13:43:35 36° 68° (ENE) 13:48:24 435.225
O/OREOS (USA 219) 06 May 13:41:11 13:44:54 25° 102° (ESE) 13:48:38 437.305
VELOX 1 06 May 13:42:20 13:46:05 27° 292° (WNW) 13:49:49 145.980
Cosmos 2499 06 May 13:44:40 13:51:35 35° 273° (W) 13:58:55 435.465 / 435.565
SPROUT 06 May 13:45:23 13:49:37 59° 286° (WNW) 13:53:49 437.525
50 SAT 06 May 13:52:01 13:53:44 13° 295° (WNW) 13:55:27 437.505
ISS 06 May 13:54:06 13:56:28 19° 228° (SW) 13:58:49 145.825
SO-50 06 May 13:58:34 14:01:44 17° 40° (NE) 14:04:50 436.795
TISAT 1 06 May 14:03:57 14:08:09 63° 101° (E) 14:12:17 437.305
JAS-2 06 May 14:07:44 14:13:27 41° 265° (W) 14:19:56 435.910
AO-85 06 May 14:11:05 14:14:31 17° 322° (NW) 14:17:55 145.980
AISAT 06 May 14:16:34 14:18:29 13° 298° (WNW) 14:20:24 437.250
ITUPSAT 1 06 May 14:22:15 14:25:29 18° 93° (E) 14:28:42 437.325
SWISSCUBE 06 May 14:28:57 14:32:46 24° 95° (E) 14:36:34 437.505
ITAMSAT 1 06 May 14:38:40 14:43:41 53° 71° (ENE) 14:48:43 435.822/435.867
Oscar 19 06 May 14:51:44 14:55:35 21° 267° (W) 14:59:28 437.125/150
AO-7 06 May 14:54:45 15:02:22 43° 61° (ENE) 15:10:02 29.400- 29.500
BEESAT 06 May 15:01:05 15:05:39 45° 99° (E) 15:10:13 436.000
PCSat 06 May 15:06:22 15:11:44 68° 116° (ESE) 15:17:09 145.827
DANDE 06 May 15:09:27 15:11:59 22° 87° (E) 15:15:01 436.750
Gurwin Techsat 1B 06 May 15:18:59 15:23:33 29° 265° (W) 15:28:09 435.225
O/OREOS (USA 219) 06 May 15:20:00 15:24:08 33° 299° (WNW) 15:28:18 437.305
CUSAT 1 06 May 15:29:20 15:33:03 61° 283° (WNW) 15:38:02 437.405
SO-50 06 May 15:38:04 15:42:47 75° 239° (WSW) 15:47:19 436.795
TISAT 1 06 May 15:41:37 15:43:15 12° 298° (WNW) 15:44:53 437.305
Cosmos 2491 06 May 15:53:53 15:57:57 14° 57° (ENE) 16:02:00 435.465 / 435.565
KKS-1 06 May 15:58:24 16:01:54 22° 94° (E) 16:05:22 437.445
ITUPSAT 1 06 May 15:58:59 16:03:34 48° 289° (WNW) 16:08:09 437.325
STARS 06 May 16:04:44 16:06:46 13° 91° (E) 16:08:47 437.465
SWISSCUBE 06 May 16:06:16 16:10:38 36° 291° (WNW) 16:14:59 437.505
ITAMSAT 1 06 May 16:19:56 16:23:27 18° 267° (W) 16:27:00 435.822/435.867
HORYU 2 06 May 16:23:03 16:27:10 37° 70° (ENE) 16:31:17 437.375
MOZHAYETS 4 06 May 16:31:43 16:35:54 34° 97° (E) 16:40:04
BEESAT 06 May 16:39:41 16:43:07 20° 296° (WNW) 16:46:32 436.000
AO-7 06 May 16:47:18 16:55:04 44° 260° (W) 17:02:55 29.400- 29.500
PCSat 06 May 16:51:36 16:55:39 21° 315° (NW) 16:59:42 145.827
DANDE 06 May 16:52:46 16:54:55 16° 296° (WNW) 16:57:25 436.750
BEESAT 3 06 May 16:53:07 16:55:44 17° 111° (ESE) 16:58:22 437.485
NOAA 15 06 May 17:07:23 17:11:24 23° 64° (ENE) 17:15:27 137.62
BEESAT 2 06 May 17:09:06 17:11:24 15° 110° (ESE) 17:13:43 435.950
